Retour au catalogue

STARLINK-34713

ActifCommunicationsVLEO
NORAD 64906·PAYLOAD·🇺🇸 United States

Lancé Jul 26, 2025 depuis Cape Canaveral Space Force Station

Loading…

Prochains Passages (prochaines 24 heures)

TLE

FraisSource: CelesTrak SupGP

Époque: Sep 14, 2026, 21:00 UTC

1 64906C 25157C   26257.87548611  .00005303  00000+0  15663-3 0  2578
2 64906  53.1579 184.1475 0001383  91.2236  70.3157 15.34398806    16

Suivez STARLINK-34713 en temps réel avec AllMySat

Download on the App Store